Year,Month,Day,Hour,Minute,Value (Times are PST for temperature in C)
2013,09,13,00,00,13.80
2013,09,13,00,01,13.80
2013,09,13,00,02,13.80
2013,09,13,00,03,13.80
2013,09,13,00,04,13.80
2013,09,13,00,05,13.80
2013,09,13,00,06,13.80
2013,09,13,00,07,13.80
2013,09,13,00,08,13.80
2013,09,13,00,09,13.80
2013,09,13,00,10,13.80
2013,09,13,00,11,13.90
2013,09,13,00,12,13.90
2013,09,13,00,13,13.90
2013,09,13,00,14,13.90
2013,09,13,00,15,13.90
2013,09,13,00,16,13.90
2013,09,13,00,17,13.90
2013,09,13,00,18,13.90
2013,09,13,00,19,14.00
2013,09,13,00,20,14.00
2013,09,13,00,21,14.00
2013,09,13,00,22,14.00
2013,09,13,00,23,14.10
2013,09,13,00,24,14.10
2013,09,13,00,25,14.10
2013,09,13,00,26,14.10
2013,09,13,00,27,14.10
2013,09,13,00,28,14.10
2013,09,13,00,29,14.10
2013,09,13,00,30,14.10
2013,09,13,00,31,14.10
2013,09,13,00,32,14.10
2013,09,13,00,33,14.10
2013,09,13,00,34,14.10
2013,09,13,00,35,14.10
2013,09,13,00,36,14.10
2013,09,13,00,37,14.10
2013,09,13,00,38,14.10
2013,09,13,00,39,14.10
2013,09,13,00,40,14.10
2013,09,13,00,41,14.10
2013,09,13,00,42,14.20
2013,09,13,00,43,14.20
2013,09,13,00,44,14.20
2013,09,13,00,45,14.30
2013,09,13,00,46,14.30
2013,09,13,00,47,14.30
2013,09,13,00,48,14.30
2013,09,13,00,49,14.30
2013,09,13,00,50,14.30
2013,09,13,00,51,14.30
2013,09,13,00,52,14.30
2013,09,13,00,53,14.30
2013,09,13,00,54,14.40
2013,09,13,00,55,14.40
2013,09,13,00,56,14.40
2013,09,13,00,57,14.40
2013,09,13,00,58,14.40
2013,09,13,00,59,14.40
2013,09,13,01,00,14.40
2013,09,13,01,01,14.40
2013,09,13,01,02,14.40
2013,09,13,01,03,14.40
2013,09,13,01,04,14.40
2013,09,13,01,05,14.50
2013,09,13,01,06,14.50
2013,09,13,01,07,14.50
2013,09,13,01,08,14.50
2013,09,13,01,09,14.60
2013,09,13,01,10,14.60
2013,09,13,01,11,14.60
2013,09,13,01,12,14.60
2013,09,13,01,13,14.60
2013,09,13,01,14,14.60
2013,09,13,01,15,14.60
2013,09,13,01,16,14.60
2013,09,13,01,17,14.60
2013,09,13,01,18,14.60
2013,09,13,01,19,14.60
2013,09,13,01,20,14.60
2013,09,13,01,21,14.60
2013,09,13,01,22,14.60
2013,09,13,01,23,14.60
2013,09,13,01,24,14.50
2013,09,13,01,25,14.50
2013,09,13,01,26,14.50
2013,09,13,01,27,14.50
2013,09,13,01,28,14.50
2013,09,13,01,29,14.50
2013,09,13,01,30,14.50
2013,09,13,01,31,14.50
2013,09,13,01,32,14.50
2013,09,13,01,33,14.50
2013,09,13,01,34,14.50
2013,09,13,01,35,14.50
2013,09,13,01,36,14.50
2013,09,13,01,37,14.50
2013,09,13,01,38,14.50
2013,09,13,01,39,14.50
2013,09,13,01,40,14.50
2013,09,13,01,41,14.50
2013,09,13,01,42,14.50
2013,09,13,01,43,14.50
2013,09,13,01,44,14.50
2013,09,13,01,45,14.50
2013,09,13,01,46,14.50
2013,09,13,01,47,14.50
2013,09,13,01,48,14.60
2013,09,13,01,49,14.60
2013,09,13,01,50,14.60
2013,09,13,01,51,14.60
2013,09,13,01,52,14.60
2013,09,13,01,53,14.60
2013,09,13,01,54,14.60
2013,09,13,01,55,14.60
2013,09,13,01,56,14.60
2013,09,13,01,57,14.70
2013,09,13,01,58,14.60
2013,09,13,01,59,14.70
2013,09,13,02,00,14.70
2013,09,13,02,01,14.70
2013,09,13,02,02,14.70
2013,09,13,02,03,14.70
2013,09,13,02,04,14.70
2013,09,13,02,05,14.70
2013,09,13,02,06,14.70
2013,09,13,02,07,14.70
2013,09,13,02,08,14.70
2013,09,13,02,09,14.70
2013,09,13,02,10,14.70
2013,09,13,02,11,14.70
2013,09,13,02,12,14.70
2013,09,13,02,13,14.70
2013,09,13,02,14,14.70
2013,09,13,02,15,14.70
2013,09,13,02,16,14.70
2013,09,13,02,17,14.70
2013,09,13,02,18,14.70
2013,09,13,02,19,14.70
2013,09,13,02,20,14.70
2013,09,13,02,21,14.70
2013,09,13,02,22,14.70
2013,09,13,02,23,14.70
2013,09,13,02,24,14.70
2013,09,13,02,25,14.70
2013,09,13,02,26,14.70
2013,09,13,02,27,14.70
2013,09,13,02,28,14.70
2013,09,13,02,29,14.70
2013,09,13,02,30,14.70
2013,09,13,02,31,14.70
2013,09,13,02,32,14.70
2013,09,13,02,33,14.70
2013,09,13,02,34,14.70
2013,09,13,02,35,14.80
2013,09,13,02,36,14.80
2013,09,13,02,37,14.80
2013,09,13,02,38,14.80
2013,09,13,02,39,14.80
2013,09,13,02,40,14.80
2013,09,13,02,41,14.80
2013,09,13,02,42,14.80
2013,09,13,02,43,14.80
2013,09,13,02,44,14.80
2013,09,13,02,45,14.80
2013,09,13,02,46,14.80
2013,09,13,02,47,14.80
2013,09,13,02,48,14.80
2013,09,13,02,49,14.80
2013,09,13,02,50,14.80
2013,09,13,02,51,14.80
2013,09,13,02,52,14.80
2013,09,13,02,53,14.80
2013,09,13,02,54,14.80
2013,09,13,02,55,14.80
2013,09,13,02,56,14.80
2013,09,13,02,57,14.80
2013,09,13,02,58,14.80
2013,09,13,02,59,14.80
2013,09,13,03,00,14.80
2013,09,13,03,01,14.80
2013,09,13,03,02,14.80
2013,09,13,03,03,14.80
2013,09,13,03,04,14.90
2013,09,13,03,05,14.90
2013,09,13,03,06,14.80
2013,09,13,03,07,14.80
2013,09,13,03,08,14.80
2013,09,13,03,09,14.80
2013,09,13,03,10,14.80
2013,09,13,03,11,14.80
2013,09,13,03,12,14.80
2013,09,13,03,13,14.80
2013,09,13,03,14,14.80
2013,09,13,03,15,14.80
2013,09,13,03,16,14.80
2013,09,13,03,17,14.80
2013,09,13,03,18,14.80
2013,09,13,03,19,14.80
2013,09,13,03,20,14.80
2013,09,13,03,21,14.80
2013,09,13,03,22,14.80
2013,09,13,03,23,14.80
2013,09,13,03,24,14.80
2013,09,13,03,25,14.80
2013,09,13,03,26,14.80
2013,09,13,03,27,14.80
2013,09,13,03,28,14.90
2013,09,13,03,29,14.90
2013,09,13,03,30,14.90
2013,09,13,03,31,14.90
2013,09,13,03,32,14.90
2013,09,13,03,33,14.90
2013,09,13,03,34,14.90
2013,09,13,03,35,14.90
2013,09,13,03,36,14.90
2013,09,13,03,37,14.90
2013,09,13,03,38,14.90
2013,09,13,03,39,15.00
2013,09,13,03,40,15.00
2013,09,13,03,41,15.00
2013,09,13,03,42,15.00
2013,09,13,03,43,15.10
2013,09,13,03,44,15.10
2013,09,13,03,45,15.10
2013,09,13,03,46,15.10
2013,09,13,03,47,15.10
2013,09,13,03,48,15.10
2013,09,13,03,49,15.10
2013,09,13,03,50,15.10
2013,09,13,03,51,15.10
2013,09,13,03,52,15.10
2013,09,13,03,53,15.10
2013,09,13,03,54,15.20
2013,09,13,03,55,15.20
2013,09,13,03,56,15.20
2013,09,13,03,57,15.20
2013,09,13,03,58,15.20
2013,09,13,03,59,15.20
2013,09,13,04,00,15.20
2013,09,13,04,01,15.20
2013,09,13,04,02,15.20
2013,09,13,04,03,15.20
2013,09,13,04,04,15.20
2013,09,13,04,05,15.20
2013,09,13,04,06,15.20
2013,09,13,04,07,15.20
2013,09,13,04,08,15.20
2013,09,13,04,09,15.20
2013,09,13,04,10,15.20
2013,09,13,04,11,15.20
2013,09,13,04,12,15.20
2013,09,13,04,13,15.20
2013,09,13,04,14,15.20
2013,09,13,04,15,15.20
2013,09,13,04,16,15.20
2013,09,13,04,17,15.20
2013,09,13,04,18,15.20
2013,09,13,04,19,15.30
2013,09,13,04,20,15.30
2013,09,13,04,21,15.30
2013,09,13,04,22,15.30
2013,09,13,04,23,15.30
2013,09,13,04,24,15.30
2013,09,13,04,25,15.30
2013,09,13,04,26,15.30
2013,09,13,04,27,15.30
2013,09,13,04,28,15.30
2013,09,13,04,29,15.30
2013,09,13,04,30,15.30
2013,09,13,04,31,15.40
2013,09,13,04,32,15.40
2013,09,13,04,33,15.40
2013,09,13,04,34,15.40
2013,09,13,04,35,15.40
2013,09,13,04,36,15.40
2013,09,13,04,37,15.40
2013,09,13,04,38,15.40
2013,09,13,04,39,15.40
2013,09,13,04,40,15.40
2013,09,13,04,41,15.40
2013,09,13,04,42,15.40
2013,09,13,04,43,15.40
2013,09,13,04,44,15.40
2013,09,13,04,45,15.40
2013,09,13,04,46,15.40
2013,09,13,04,47,15.40
2013,09,13,04,48,15.40
2013,09,13,04,49,15.40
2013,09,13,04,50,15.40
2013,09,13,04,51,15.40
2013,09,13,04,52,15.40
2013,09,13,04,53,15.40
2013,09,13,04,54,15.40
2013,09,13,04,55,15.40
2013,09,13,04,56,15.30
2013,09,13,04,57,15.30
2013,09,13,04,58,15.30
2013,09,13,04,59,15.30
2013,09,13,05,00,15.30
2013,09,13,05,01,15.30
2013,09,13,05,02,15.30
2013,09,13,05,03,15.30
2013,09,13,05,04,15.30
2013,09,13,05,05,15.30
2013,09,13,05,06,15.30
2013,09,13,05,07,15.30
2013,09,13,05,08,15.30
2013,09,13,05,09,15.30
2013,09,13,05,10,15.30
2013,09,13,05,11,15.20
2013,09,13,05,12,15.20
2013,09,13,05,13,15.20
2013,09,13,05,14,15.20
2013,09,13,05,15,15.20
2013,09,13,05,16,15.20
2013,09,13,05,17,15.20
2013,09,13,05,18,15.20
2013,09,13,05,19,15.20
2013,09,13,05,20,15.20
2013,09,13,05,21,15.20
2013,09,13,05,22,15.20
2013,09,13,05,23,15.20
2013,09,13,05,24,15.20
2013,09,13,05,25,15.20
2013,09,13,05,26,15.20
2013,09,13,05,27,15.20
2013,09,13,05,28,15.20
2013,09,13,05,29,15.20
2013,09,13,05,30,15.20
2013,09,13,05,31,15.20
2013,09,13,05,32,15.20
2013,09,13,05,33,15.20
2013,09,13,05,34,15.20
2013,09,13,05,35,15.20
2013,09,13,05,36,15.20
2013,09,13,05,37,15.20
2013,09,13,05,38,15.20
2013,09,13,05,39,15.20
2013,09,13,05,40,15.20
2013,09,13,05,41,15.20
2013,09,13,05,42,15.20
2013,09,13,05,43,15.20
2013,09,13,05,44,15.20
2013,09,13,05,45,15.20
2013,09,13,05,46,15.20
2013,09,13,05,47,15.20
2013,09,13,05,48,15.20
2013,09,13,05,49,15.20
2013,09,13,05,50,15.20
2013,09,13,05,51,15.20
2013,09,13,05,52,15.10
2013,09,13,05,53,15.10
2013,09,13,05,54,15.10
2013,09,13,05,55,15.10
2013,09,13,05,56,15.10
2013,09,13,05,57,15.10
2013,09,13,05,58,15.10
2013,09,13,05,59,15.00
2013,09,13,06,00,15.00
2013,09,13,06,01,15.00
2013,09,13,06,02,15.00
2013,09,13,06,03,15.00
2013,09,13,06,04,15.00
2013,09,13,06,05,15.00
2013,09,13,06,06,15.00
2013,09,13,06,07,15.00
2013,09,13,06,08,15.00
2013,09,13,06,09,15.00
2013,09,13,06,10,15.00
2013,09,13,06,11,15.00
2013,09,13,06,12,15.00
2013,09,13,06,13,14.90
2013,09,13,06,14,14.90
2013,09,13,06,15,15.00
2013,09,13,06,16,14.90
2013,09,13,06,17,14.90
2013,09,13,06,18,14.90
2013,09,13,06,19,14.90
2013,09,13,06,20,14.80
2013,09,13,06,21,14.80
2013,09,13,06,22,14.80
2013,09,13,06,23,14.70
2013,09,13,06,24,14.70
2013,09,13,06,25,14.70
2013,09,13,06,26,14.70
2013,09,13,06,27,14.60
2013,09,13,06,28,14.60
2013,09,13,06,29,14.60
2013,09,13,06,30,14.60
2013,09,13,06,31,14.50
2013,09,13,06,32,14.50
2013,09,13,06,33,14.50
2013,09,13,06,34,14.50
2013,09,13,06,35,14.40
2013,09,13,06,36,14.40
2013,09,13,06,37,14.40
2013,09,13,06,38,14.40
2013,09,13,06,39,14.40
2013,09,13,06,40,14.40
2013,09,13,06,41,14.40
2013,09,13,06,42,14.40
2013,09,13,06,43,14.40
2013,09,13,06,44,14.40
2013,09,13,06,45,14.40
2013,09,13,06,46,14.40
2013,09,13,06,47,14.40
2013,09,13,06,48,14.40
2013,09,13,06,49,14.40
2013,09,13,06,50,14.40
2013,09,13,06,51,14.40
2013,09,13,06,52,14.40
2013,09,13,06,53,14.40
2013,09,13,06,54,14.50
2013,09,13,06,55,14.50
2013,09,13,06,56,14.60
2013,09,13,06,57,14.60
2013,09,13,06,58,14.60
2013,09,13,06,59,14.70
2013,09,13,07,00,14.70
2013,09,13,07,01,14.70
2013,09,13,07,02,14.70
2013,09,13,07,03,14.80
2013,09,13,07,04,14.80
2013,09,13,07,05,14.80
2013,09,13,07,06,14.80
2013,09,13,07,07,14.80
2013,09,13,07,08,14.80
2013,09,13,07,09,14.80
2013,09,13,07,10,14.80
2013,09,13,07,11,14.80
2013,09,13,07,12,14.90
2013,09,13,07,13,14.90
2013,09,13,07,14,14.90
2013,09,13,07,15,14.90
2013,09,13,07,16,14.80
2013,09,13,07,17,14.80
2013,09,13,07,18,14.80
2013,09,13,07,19,14.80
2013,09,13,07,20,14.80
2013,09,13,07,21,14.80
2013,09,13,07,22,14.80
2013,09,13,07,23,14.80
2013,09,13,07,24,14.80
2013,09,13,07,25,14.80
2013,09,13,07,26,14.80
2013,09,13,07,27,14.70
2013,09,13,07,28,14.70
2013,09,13,07,29,14.70
2013,09,13,07,30,14.70
2013,09,13,07,31,14.70
2013,09,13,07,32,14.70
2013,09,13,07,33,14.60
2013,09,13,07,34,14.60
2013,09,13,07,35,14.60
2013,09,13,07,36,14.60
2013,09,13,07,37,14.60
2013,09,13,07,38,14.50
2013,09,13,07,39,14.50
2013,09,13,07,40,14.50
2013,09,13,07,41,14.50
2013,09,13,07,42,14.50
2013,09,13,07,43,14.50
2013,09,13,07,44,14.50
2013,09,13,07,45,14.50
2013,09,13,07,46,14.50
2013,09,13,07,47,14.40
2013,09,13,07,48,14.40
2013,09,13,07,49,14.40
2013,09,13,07,50,14.40
2013,09,13,07,51,14.40
2013,09,13,07,52,14.30
2013,09,13,07,53,14.30
2013,09,13,07,54,14.30
2013,09,13,07,55,14.30
2013,09,13,07,56,14.30
2013,09,13,07,57,14.30
2013,09,13,07,58,14.30
2013,09,13,07,59,14.30
2013,09,13,08,00,14.30
2013,09,13,08,01,14.30
2013,09,13,08,02,14.30
2013,09,13,08,03,14.30
2013,09,13,08,04,14.30
2013,09,13,08,05,14.30
2013,09,13,08,06,14.30
2013,09,13,08,07,14.30
2013,09,13,08,08,14.30
2013,09,13,08,09,14.30
2013,09,13,08,10,14.30
2013,09,13,08,11,14.30
2013,09,13,08,12,14.40
2013,09,13,08,13,14.30
2013,09,13,08,14,14.30
2013,09,13,08,15,14.30
2013,09,13,08,16,14.30
2013,09,13,08,17,14.30
2013,09,13,08,18,14.30
2013,09,13,08,19,14.30
2013,09,13,08,20,14.40
2013,09,13,08,21,14.40
2013,09,13,08,22,14.40
2013,09,13,08,23,14.40
2013,09,13,08,24,14.40
2013,09,13,08,25,14.40
2013,09,13,08,26,14.40
2013,09,13,08,27,14.40
2013,09,13,08,28,14.40
2013,09,13,08,29,14.50
2013,09,13,08,30,14.50
2013,09,13,08,31,14.50
2013,09,13,08,32,14.50
2013,09,13,08,33,14.50
2013,09,13,08,34,14.50
2013,09,13,08,35,14.50
2013,09,13,08,36,14.50
2013,09,13,08,37,14.50
2013,09,13,08,38,14.50
2013,09,13,08,39,14.50
2013,09,13,08,40,14.40
2013,09,13,08,41,14.40
2013,09,13,08,42,14.40
2013,09,13,08,43,14.30
2013,09,13,08,44,14.30
2013,09,13,08,45,14.30
2013,09,13,08,46,14.30
2013,09,13,08,47,14.30
2013,09,13,08,48,14.30
2013,09,13,08,49,14.30
2013,09,13,08,50,14.30
2013,09,13,08,51,14.20
2013,09,13,08,52,14.20
2013,09,13,08,53,14.20
2013,09,13,08,54,14.10
2013,09,13,08,55,14.00
2013,09,13,08,56,14.00
2013,09,13,08,57,14.00
2013,09,13,08,58,14.00
2013,09,13,08,59,14.00
2013,09,13,09,00,13.90
2013,09,13,09,01,13.90
2013,09,13,09,02,14.00
2013,09,13,09,03,14.00
2013,09,13,09,04,14.00
2013,09,13,09,05,14.00
2013,09,13,09,06,14.00
2013,09,13,09,07,14.00
2013,09,13,09,08,14.10
2013,09,13,09,09,14.10
2013,09,13,09,10,14.10
2013,09,13,09,11,14.10
2013,09,13,09,12,14.10
2013,09,13,09,13,14.10
2013,09,13,09,14,14.10
2013,09,13,09,15,14.20
2013,09,13,09,16,14.20
2013,09,13,09,17,14.20
2013,09,13,09,18,14.20
2013,09,13,09,19,14.10
2013,09,13,09,20,14.10
2013,09,13,09,21,14.10
2013,09,13,09,22,14.10
2013,09,13,09,23,14.10
2013,09,13,09,24,14.10
2013,09,13,09,25,14.10
2013,09,13,09,26,14.10
2013,09,13,09,27,14.10
2013,09,13,09,28,14.10
2013,09,13,09,29,14.10
2013,09,13,09,30,14.00
2013,09,13,09,31,14.00
2013,09,13,09,32,14.00
2013,09,13,09,33,13.90
2013,09,13,09,34,13.90
2013,09,13,09,35,14.00
2013,09,13,09,36,14.00
2013,09,13,09,37,14.10
2013,09,13,09,38,14.10
2013,09,13,09,39,14.10
2013,09,13,09,40,14.20
2013,09,13,09,41,14.20
2013,09,13,09,42,14.20
2013,09,13,09,43,14.30
2013,09,13,09,44,14.30
2013,09,13,09,45,14.30
2013,09,13,09,46,14.30
2013,09,13,09,47,14.40
2013,09,13,09,48,14.40
2013,09,13,09,49,14.40
2013,09,13,09,50,14.40
2013,09,13,09,51,14.50
2013,09,13,09,52,14.50
2013,09,13,09,53,14.60
2013,09,13,09,54,14.60
2013,09,13,09,55,14.60
2013,09,13,09,56,14.70
2013,09,13,09,57,14.70
2013,09,13,09,58,14.80
2013,09,13,09,59,14.80
2013,09,13,10,00,14.80
2013,09,13,10,01,14.90
2013,09,13,10,02,14.90
2013,09,13,10,03,14.90
2013,09,13,10,04,14.90
2013,09,13,10,05,15.00
2013,09,13,10,06,15.00
2013,09,13,10,07,15.00
2013,09,13,10,08,15.10
2013,09,13,10,09,15.10
2013,09,13,10,10,15.20
2013,09,13,10,11,15.20
2013,09,13,10,12,15.10
2013,09,13,10,13,15.10
2013,09,13,10,14,15.10
2013,09,13,10,15,15.10
2013,09,13,10,16,15.20
2013,09,13,10,17,15.20
2013,09,13,10,18,15.30
2013,09,13,10,19,15.40
2013,09,13,10,20,15.50
2013,09,13,10,21,15.60
2013,09,13,10,22,15.60
2013,09,13,10,23,15.70
2013,09,13,10,24,15.80
2013,09,13,10,25,15.80
2013,09,13,10,26,15.90
2013,09,13,10,27,15.80
2013,09,13,10,28,15.80
2013,09,13,10,29,15.80
2013,09,13,10,30,15.70
2013,09,13,10,31,15.70
2013,09,13,10,32,15.70
2013,09,13,10,33,15.70
2013,09,13,10,34,15.70
2013,09,13,10,35,15.70
2013,09,13,10,36,15.70
2013,09,13,10,37,15.60
2013,09,13,10,38,15.70
2013,09,13,10,39,15.60
2013,09,13,10,40,15.60
2013,09,13,10,41,15.60
2013,09,13,10,42,15.60
2013,09,13,10,43,15.50
2013,09,13,10,44,15.50
2013,09,13,10,45,15.50
2013,09,13,10,46,15.60
2013,09,13,10,47,15.70
2013,09,13,10,48,15.70
2013,09,13,10,49,15.80
2013,09,13,10,50,15.80
2013,09,13,10,51,15.90
2013,09,13,10,52,16.00
2013,09,13,10,53,16.00
2013,09,13,10,54,16.20
2013,09,13,10,55,16.20
2013,09,13,10,56,16.20
2013,09,13,10,57,16.40
2013,09,13,10,58,16.40
2013,09,13,10,59,16.50
2013,09,13,11,00,16.50
2013,09,13,11,01,16.60
2013,09,13,11,02,16.70
2013,09,13,11,03,16.80
2013,09,13,11,04,16.90
2013,09,13,11,05,16.80
2013,09,13,11,06,16.80
2013,09,13,11,07,16.80
2013,09,13,11,08,16.90
2013,09,13,11,09,17.00
2013,09,13,11,10,17.00
2013,09,13,11,11,17.10
2013,09,13,11,12,17.10
2013,09,13,11,13,17.20
2013,09,13,11,14,17.20
2013,09,13,11,15,17.20
2013,09,13,11,16,17.20
2013,09,13,11,17,17.30
2013,09,13,11,18,17.50
2013,09,13,11,19,17.60
2013,09,13,11,20,17.80
2013,09,13,11,21,17.90
2013,09,13,11,22,18.00
2013,09,13,11,23,18.20
2013,09,13,11,24,18.30
2013,09,13,11,25,18.20
2013,09,13,11,26,18.10
2013,09,13,11,27,18.10
2013,09,13,11,28,18.10
2013,09,13,11,29,18.10
2013,09,13,11,30,18.20
2013,09,13,11,31,18.40
2013,09,13,11,32,18.60
2013,09,13,11,33,18.70
2013,09,13,11,34,18.90
2013,09,13,11,35,19.00
2013,09,13,11,36,19.10
2013,09,13,11,37,19.10
2013,09,13,11,38,19.10
2013,09,13,11,39,19.10
2013,09,13,11,40,19.20
2013,09,13,11,41,19.20
2013,09,13,11,42,19.20
2013,09,13,11,43,19.30
2013,09,13,11,44,19.40
2013,09,13,11,45,19.40
2013,09,13,11,46,19.40
2013,09,13,11,47,19.40
2013,09,13,11,48,19.40
2013,09,13,11,49,19.30
2013,09,13,11,50,19.20
2013,09,13,11,51,19.20
2013,09,13,11,52,19.20
2013,09,13,11,53,19.30
2013,09,13,11,54,19.30
2013,09,13,11,55,19.30
2013,09,13,11,56,19.40
2013,09,13,11,57,19.40
2013,09,13,11,58,19.40
2013,09,13,11,59,19.40
2013,09,13,12,00,19.50
2013,09,13,12,01,19.60
2013,09,13,12,02,19.70
2013,09,13,12,03,19.70
2013,09,13,12,04,19.70
2013,09,13,12,05,19.70
2013,09,13,12,06,19.70
2013,09,13,12,07,19.70
2013,09,13,12,08,19.70
2013,09,13,12,09,19.70
2013,09,13,12,10,19.70
2013,09,13,12,11,19.70
2013,09,13,12,12,19.60
2013,09,13,12,13,19.60
2013,09,13,12,14,19.70
2013,09,13,12,15,19.80
2013,09,13,12,16,19.80
2013,09,13,12,17,19.80
2013,09,13,12,18,19.80
2013,09,13,12,19,19.90
2013,09,13,12,20,19.90
2013,09,13,12,21,19.90
2013,09,13,12,22,19.90
2013,09,13,12,23,19.90
2013,09,13,12,24,20.00
2013,09,13,12,25,20.00
2013,09,13,12,26,19.90
2013,09,13,12,27,19.90
2013,09,13,12,28,19.90
2013,09,13,12,29,20.00
2013,09,13,12,30,19.90
2013,09,13,12,31,19.90
2013,09,13,12,32,19.90
2013,09,13,12,33,20.00
2013,09,13,12,34,20.10
2013,09,13,12,35,20.10
2013,09,13,12,36,20.20
2013,09,13,12,37,20.20
2013,09,13,12,38,20.20
2013,09,13,12,39,20.20
2013,09,13,12,40,20.20
2013,09,13,12,41,20.30
2013,09,13,12,42,20.30
2013,09,13,12,43,20.30
2013,09,13,12,44,20.40
2013,09,13,12,45,20.40
2013,09,13,12,46,20.40
2013,09,13,12,47,20.40
2013,09,13,12,48,20.30
2013,09,13,12,49,20.30
2013,09,13,12,50,20.20
2013,09,13,12,51,20.20
2013,09,13,12,52,20.30
2013,09,13,12,53,20.30
2013,09,13,12,54,20.30
2013,09,13,12,55,20.30
2013,09,13,12,56,20.30
2013,09,13,12,57,20.30
2013,09,13,12,58,20.30
2013,09,13,12,59,20.30
2013,09,13,13,00,20.40
2013,09,13,13,01,20.40
2013,09,13,13,02,20.40
2013,09,13,13,03,20.40
2013,09,13,13,04,20.40
2013,09,13,13,05,20.40
2013,09,13,13,06,20.40
2013,09,13,13,07,20.50
2013,09,13,13,08,20.60
2013,09,13,13,09,20.60
2013,09,13,13,10,20.60
2013,09,13,13,11,20.70
2013,09,13,13,12,20.70
2013,09,13,13,13,20.80
2013,09,13,13,14,20.80
2013,09,13,13,15,20.80
2013,09,13,13,16,20.70
2013,09,13,13,17,20.70
2013,09,13,13,18,20.60
2013,09,13,13,19,20.60
2013,09,13,13,20,20.60
2013,09,13,13,21,20.50
2013,09,13,13,22,20.50
2013,09,13,13,23,20.40
2013,09,13,13,24,20.40
2013,09,13,13,25,20.40
2013,09,13,13,26,20.40
2013,09,13,13,27,20.40
2013,09,13,13,28,20.40
2013,09,13,13,29,20.30
2013,09,13,13,30,20.30
2013,09,13,13,31,20.30
2013,09,13,13,32,20.40
2013,09,13,13,33,20.40
2013,09,13,13,34,20.40
2013,09,13,13,35,20.50
2013,09,13,13,36,20.50
2013,09,13,13,37,20.60
2013,09,13,13,38,20.60
2013,09,13,13,39,20.60
2013,09,13,13,40,20.60
2013,09,13,13,41,20.60
2013,09,13,13,42,20.70
2013,09,13,13,43,20.70
2013,09,13,13,44,20.70
2013,09,13,13,45,20.70
2013,09,13,13,46,20.70
2013,09,13,13,47,20.70
2013,09,13,13,48,20.80
2013,09,13,13,49,20.80
2013,09,13,13,50,20.80
2013,09,13,13,51,20.80
2013,09,13,13,52,20.80
2013,09,13,13,53,20.90
2013,09,13,13,54,21.00
2013,09,13,13,55,21.00
2013,09,13,13,56,21.00
2013,09,13,13,57,21.00
2013,09,13,13,58,21.00
2013,09,13,13,59,21.00
2013,09,13,14,00,21.00
2013,09,13,14,01,21.00
2013,09,13,14,02,21.10
2013,09,13,14,03,21.00
2013,09,13,14,04,21.00
2013,09,13,14,05,21.00
2013,09,13,14,06,21.00
2013,09,13,14,07,21.00
2013,09,13,14,08,21.00
2013,09,13,14,09,21.00
2013,09,13,14,10,21.00
2013,09,13,14,11,21.00
2013,09,13,14,12,21.10
2013,09,13,14,13,21.20
2013,09,13,14,14,21.20
2013,09,13,14,15,21.20
2013,09,13,14,16,21.20
2013,09,13,14,17,21.20
2013,09,13,14,18,21.20
2013,09,13,14,19,21.20
2013,09,13,14,20,21.20
2013,09,13,14,21,21.10
2013,09,13,14,22,21.10
2013,09,13,14,23,21.10
2013,09,13,14,24,21.20
2013,09,13,14,25,21.20
2013,09,13,14,26,21.20
2013,09,13,14,27,21.20
2013,09,13,14,28,21.30
2013,09,13,14,29,21.20
2013,09,13,14,30,21.20
2013,09,13,14,31,21.20
2013,09,13,14,32,21.20
2013,09,13,14,33,21.20
2013,09,13,14,34,21.20
2013,09,13,14,35,21.20
2013,09,13,14,36,21.10
2013,09,13,14,37,21.20
2013,09,13,14,38,21.20
2013,09,13,14,39,21.20
2013,09,13,14,40,21.30
2013,09,13,14,41,21.40
2013,09,13,14,42,21.40
2013,09,13,14,43,21.40
2013,09,13,14,44,21.40
2013,09,13,14,45,21.30
2013,09,13,14,46,21.30
2013,09,13,14,47,21.20
2013,09,13,14,48,21.20
2013,09,13,14,49,21.20
2013,09,13,14,50,21.20
2013,09,13,14,51,21.10
2013,09,13,14,52,21.00
2013,09,13,14,53,20.90
2013,09,13,14,54,20.90
2013,09,13,14,55,21.00
2013,09,13,14,56,21.00
2013,09,13,14,57,20.90
2013,09,13,14,58,20.90
2013,09,13,14,59,20.80
2013,09,13,15,00,20.70
2013,09,13,15,01,20.60
2013,09,13,15,02,20.50
2013,09,13,15,03,20.40
2013,09,13,15,04,20.40
2013,09,13,15,05,20.40
2013,09,13,15,06,20.40
2013,09,13,15,07,20.50
2013,09,13,15,08,20.60
2013,09,13,15,09,20.70
2013,09,13,15,10,20.80
2013,09,13,15,11,20.90
2013,09,13,15,12,20.90
2013,09,13,15,13,20.80
2013,09,13,15,14,20.80
2013,09,13,15,15,20.70
2013,09,13,15,16,20.80
2013,09,13,15,17,20.80
2013,09,13,15,18,20.90
2013,09,13,15,19,21.00
2013,09,13,15,20,21.10
2013,09,13,15,21,21.10
2013,09,13,15,22,21.10
2013,09,13,15,23,21.10
2013,09,13,15,24,21.10
2013,09,13,15,25,21.00
2013,09,13,15,26,20.90
2013,09,13,15,27,20.90
2013,09,13,15,28,20.90
2013,09,13,15,29,20.90
2013,09,13,15,30,20.90
2013,09,13,15,31,20.90
2013,09,13,15,32,21.00
2013,09,13,15,33,21.00
2013,09,13,15,34,21.10
2013,09,13,15,35,21.00
2013,09,13,15,36,20.80
2013,09,13,15,37,20.40
2013,09,13,15,38,19.90
2013,09,13,15,39,19.60
2013,09,13,15,40,19.40
2013,09,13,15,41,19.10
2013,09,13,15,42,18.90
2013,09,13,15,43,18.80
2013,09,13,15,44,18.60
2013,09,13,15,45,18.50
2013,09,13,15,46,18.40
2013,09,13,15,47,18.30
2013,09,13,15,48,18.20
2013,09,13,15,49,18.00
2013,09,13,15,50,17.90
2013,09,13,15,51,17.90
2013,09,13,15,52,17.90
2013,09,13,15,53,17.80
2013,09,13,15,54,17.80
2013,09,13,15,55,17.80
2013,09,13,15,56,17.90
2013,09,13,15,57,18.00
2013,09,13,15,58,18.20
2013,09,13,15,59,18.50
2013,09,13,16,00,18.80
2013,09,13,16,01,19.10
2013,09,13,16,02,19.40
2013,09,13,16,03,19.50
2013,09,13,16,04,19.40
2013,09,13,16,05,19.20
2013,09,13,16,06,19.00
2013,09,13,16,07,18.70
2013,09,13,16,08,18.60
2013,09,13,16,09,18.30
2013,09,13,16,10,18.20
2013,09,13,16,11,18.00
2013,09,13,16,12,17.90
2013,09,13,16,13,17.90
2013,09,13,16,14,17.90
2013,09,13,16,15,18.00
2013,09,13,16,16,18.20
2013,09,13,16,17,18.20
2013,09,13,16,18,18.30
2013,09,13,16,19,18.40
2013,09,13,16,20,18.40
2013,09,13,16,21,18.50
2013,09,13,16,22,18.50
2013,09,13,16,23,18.60
2013,09,13,16,24,18.70
2013,09,13,16,25,18.90
2013,09,13,16,26,19.10
2013,09,13,16,27,19.30
2013,09,13,16,28,19.50
2013,09,13,16,29,19.70
2013,09,13,16,30,19.90
2013,09,13,16,31,20.10
2013,09,13,16,32,20.20
2013,09,13,16,33,20.20
2013,09,13,16,34,20.30
2013,09,13,16,35,20.20
2013,09,13,16,36,20.20
2013,09,13,16,37,20.20
2013,09,13,16,38,20.20
2013,09,13,16,39,20.20
2013,09,13,16,40,20.20
2013,09,13,16,41,20.30
2013,09,13,16,42,20.40
2013,09,13,16,43,20.40
2013,09,13,16,44,20.40
2013,09,13,16,45,20.40
2013,09,13,16,46,20.40
2013,09,13,16,47,20.50
2013,09,13,16,48,20.50
2013,09,13,16,49,20.60
2013,09,13,16,50,20.50
2013,09,13,16,51,20.60
2013,09,13,16,52,20.60
2013,09,13,16,53,20.60
2013,09,13,16,54,20.50
2013,09,13,16,55,20.50
2013,09,13,16,56,20.50
2013,09,13,16,57,20.40
2013,09,13,16,58,20.40
2013,09,13,16,59,20.50
2013,09,13,17,00,20.50
2013,09,13,17,01,20.60
2013,09,13,17,02,20.60
2013,09,13,17,03,20.70
2013,09,13,17,04,20.80
2013,09,13,17,05,20.80
2013,09,13,17,06,20.90
2013,09,13,17,07,20.90
2013,09,13,17,08,21.00
2013,09,13,17,09,21.00
2013,09,13,17,10,21.00
2013,09,13,17,11,20.90
2013,09,13,17,12,20.90
2013,09,13,17,13,20.90
2013,09,13,17,14,20.90
2013,09,13,17,15,20.90
2013,09,13,17,16,20.90
2013,09,13,17,17,20.90
2013,09,13,17,18,20.90
2013,09,13,17,19,20.90